Flag for Iran Weather past 2 weeks in Bandar-Abbas, Iran

Now
72 °F

Clear.


Feels Like: 69 °F
Forecast: 68 / 82 °F
Wind: 5 mph from Southwest

Location: Bandarabbass

Current Time: Mar 28, 2015 at 3:25:07 AM

Latest Report: Mar 28, 2015 at 2:30 AM


Visibility: 4 mi

Pressure: 29.89 "Hg

Humidity: 88%

Dew point: 68 °F

Location of Bandar-AbbasLocation

Historic Weather in Bandar-Abbas — Graph

°F

Bandar-Abbas temperature yesterday

Maximum temperature yesterday: 84 °F (at 5:00 PM)
Minimum temperature yesterday: 68 °F (at 3:30 AM)
Average temperature yesterday: 76 °F

Past Weeks' High & Low Weather Summary

 TemperatureHumidityPressure
High104 °F (Mar 21, 11:30 AM)100% (Mar 24, 4:20 AM)30.07 "Hg (Mar 24, 4:20 AM)
Low55 °F (Mar 13, 4:30 AM)14% (Mar 21, 11:30 AM)29.86 "Hg (Mar 25, 3:30 PM)
Average74 °F68%29.96 "Hg
* Reported Mar 13 1:30 AM — Mar 28 2:30 AM, Bandar-Abbas, Weather by CustomWeather, © 2015

Note: Actual official high and low records may vary slightly from our data, if they occured in-between our weather recording intervals... More about our weather records

Advertising

Bandar-Abbas weather history for previous 24 hours

 ConditionsComfort  
Time TempWeatherWind HumidityBarometerVisibility
2:30 AM
Sat, Mar 28
72 °FClear.5 mph88%29.89 "Hg4 mi
1:30 AM73 °FClear.5 mph78%29.92 "Hg4 mi
1:00 AM73 °FClear.No wind83%29.92 "Hg4 mi
12:30 AM75 °FClear.7 mph78%29.92 "Hg4 mi
12:00 AM75 °FPassing clouds.9 mph78%29.92 "Hg4 mi
11:30 PM
Fri, Mar 27
75 °FPassing clouds.5 mph78%29.92 "Hg4 mi
11:00 PM75 °FPassing clouds.7 mph78%29.92 "Hg4 mi
10:30 PM73 °FPassing clouds.5 mph78%29.92 "Hg4 mi
10:00 PM75 °FPassing clouds.7 mph78%29.92 "Hg4 mi
9:30 PM75 °FPassing clouds.5 mph74%29.92 "Hg4 mi
9:00 PM75 °FPassing clouds.5 mph78%29.92 "Hg4 mi
8:30 PM75 °FPassing clouds.12 mph78%29.92 "Hg4 mi
8:00 PM75 °FPartly sunny.7 mph78%29.92 "Hg4 mi
7:30 PM77 °FPartly sunny.7 mph74%29.89 "Hg4 mi
7:00 PM77 °FPartly sunny.7 mph74%29.89 "Hg4 mi
6:30 PM79 °FPartly sunny.7 mph70%29.89 "Hg4 mi
6:00 PM79 °FPartly sunny.9 mph70%29.89 "Hg4 mi
5:30 PM82 °FPartly sunny.9 mph58%29.89 "Hg4 mi
5:00 PM84 °FScattered clouds.5 mph55%29.89 "Hg4 mi
4:30 PM82 °FScattered clouds.5 mph58%29.92 "Hg4 mi
4:00 PM82 °FScattered clouds.7 mph62%29.92 "Hg3 mi
3:30 PM81 °FPartly sunny.9 mph70%29.92 "Hg3 mi
3:00 PM79 °FPartly sunny.7 mph70%29.92 "Hg3 mi
2:30 PM77 °FOvercast.7 mph79%29.95 "Hg2 mi
2:00 PM77 °FPartly sunny.9 mph79%29.98 "Hg2 mi
1:30 PM77 °FLight rain. Overcast.9 mph74%29.98 "Hg2 mi
1:00 PM77 °FLight rain. Overcast.9 mph79%29.98 "Hg2 mi
12:30 PM77 °FRain. Overcast.7 mph74%29.98 "Hg2 mi
12:00 PM79 °FLight rain. Partly sunny.7 mph70%29.98 "Hg2 mi
11:30 AM79 °FPartly sunny.5 mph65%29.98 "Hg3 mi
11:00 AM79 °FPartly sunny.5 mph70%29.98 "Hg3 mi
10:30 AM77 °FPartly sunny.5 mph74%29.98 "Hg2 mi
10:00 AM77 °FPartly sunny.5 mph74%29.98 "Hg2 mi
9:30 AM75 °FLight rain. Partly sunny.5 mph83%29.98 "Hg2 mi
9:00 AM73 °FLight rain. Partly sunny.5 mph83%29.95 "Hg2 mi
8:30 AM73 °FLight rain. Partly sunny.9 mph83%29.95 "Hg2 mi
7:30 AM70 °FFog.5 mph83%29.92 "Hg3 mi
6:30 AM68 °FClear.5 mph88%29.92 "Hg4 mi
5:20 AM68 °FClear.5 mph88%29.89 "Hg4 mi
4:20 AM68 °FClear.5 mph88%29.89 "Hg4 mi
3:30 AM68 °FClear.7 mph88%29.89 "Hg4 mi
Weather by CustomWeather, © 2015

See weather overviewHow to use our weather pages